Regional Weather Roundup
Issued by NWS Newport/Morehead, NC

Current Version | Previous Version | Graphics & Text | Print | Product List | Glossary Off
Versions: 1 2 3 4 5 6 7 8 9 10 11 12 13 14 15 16 17 18 19 20 21 22 23 24 25 26 27 28 29 30 31 32 33 34 35 36 37 38 39 40 41 42 43 44 45 46 47 48 49 50

000
ASUS42 KMHX 240022
RWRMHX
WEATHER ROUNDUP FOR EASTERN NORTH CAROLINA
NATIONAL WEATHER SERVICE NEWPORT/MOREHEAD CITY NC
700 PM EST SUN NOV 23 2014

NOTE: "FAIR" INDICATES FEW OR NO CLOUDS BELOW 12,000 FEET
WITH NO SIGNIFICANT WEATHER AND/OR OBSTRUCTIONS TO VISIBILITY

NCZ015>017-031-032-045>047-102-103-240100-
NORTH COAST

CITY           SKY/WX    TMP DP  RH WIND       PRES   REMARKS
EDENTON        CLOUDY    59  58  97 SE5       30.02F
ELIZABETH CITY CLOUDY    59  55  87 E7        30.03F
KITTY HAWK     CLOUDY    61  58  91 SE7       30.02F
MANTEO         CLOUDY    62  57  83 SE12      30.04F

$$

NCZ045>047-081-094-103-104-240100-
CENTRAL COAST

CITY           SKY/WX    TMP DP  RH WIND       PRES   REMARKS
FRISCO         CLOUDY    65  61  87 SE21G29   30.03F
SWANQUARTER      N/A     61 N/A N/A SE9G18    29.97S

$$

NCZ095-097-098-100-101-240100-
SOUTHERN COAST

CITY           SKY/WX    TMP DP  RH WIND       PRES   REMARKS
BEAUFORT       MOCLDY    66  62  87 SE16G23   30.00S
CEDAR ISLAND     N/A     63 N/A N/A E16G22    30.03S
JACKSONVILLE   MOCLDY    66  62  87 SE14G23   29.96F
PINEY ISLAND   LGT RAIN  69  62  78 SE15G23   29.99F
WILMINGTON     LGT RAIN  67  64  90 SE13G22   29.94F


$$

NCZ011>013-027>030-043-044-078>080-089-090>093-098-240100-
COASTAL PLAIN

CITY           SKY/WX    TMP DP  RH WIND       PRES   REMARKS
AHOSKIE        CLOUDY    56  55  96 CALM      30.01F
CLINTON        CLOUDY    63  63 100 SE5       29.93F
ELIZABETHTOWN  RAIN      64  64  97 SE14      29.92S
GOLDSBORO      CLOUDY    61  61 100 E6        29.93F
GREENVILLE     LGT RAIN  61  59  94 E3        30.00F
HAVELOCK       CLOUDY    66  61  82 SE14      30.00F
KENANSVILLE    CLOUDY    61  60  97 CALM      29.95F FOG
KINSTON        NOT AVBL
NEW BERN       CLOUDY    67  61  81 SE12G18   29.99F
RICHLANDS      MOCLDY    64  61  88 SE10G16   29.96F
ROCKY MOUNT    LGT RAIN  59  58  96 VRB3      29.95F FOG
WASHINGTON     CLOUDY    60  58  91 SE7       30.00F
WHITEVILLE     LGT RAIN  64  62  92 SE10G21   29.92S

$$

AMZ130-135-150-152-154-156-158-170-250-252-270-ANZ085-086-088-633-658-670-240100-
MARINE OBSERVATIONS

STATION/POSITION TIME  TEMP    WIND        PRES    WAVE   SWELL
                       AIR SEA DIR/SP/G            HT/PER HT/PER
                 (UTC) (F)     (DEG/KT/KT) (MB)    (FT/S) (FT/S)
CHESAPEAKE LIGHT 0000   60     130/ 19/ 19 1018.0
64 E VA BEACH    0000   66 64  160/ 14/ 16 1018.2    3/ 5   2/ 9
DUCK             0000   58 55  150/  8/ 10 1016.1
2 E DUCK         0000      56                N/A     2/ 9
10 NE DUCK       0000      58                N/A     3/ 5
OREGON INLET     0000   62 52  140/ 11/ 14 1017.0
13E OREGON INLT  0000      64                N/A     6/ 6
HATTERAS CG      0000   67 57  150/ 17/ 22 1017.0
DIAMOND BUOY     0000   70     140/ 25/ 29 1016.6    7/ 5   2/ 9
17 S OCRACOKE    NOT AVBL
CAPE LOOKOUT     0000   66     140/ 23/ 24 1015.4
BEAUFORT LAB     0000   65 55  140/ 15/ 20 1014.4
30 SE NEW RIVER  0000   71 70  150/ 31/ 39 1012.5   13/ 8
5 SE WRIGHTSVLE  0000   62 60  150/ 21/ 25 1012.9
225 S CAPE HAT   2240   72 73  130/ 23/ 29 1019.2    7/ 7   3/ 9
41 SE CHARLESTON 0000   76 75  170/  8/ 12 1011.5   12/ 9  11/ 9

$$



USA.gov is the U.S. government's official web portal to all federal, state and local government web resources and services.